Location: Peebles
(55.6412°N, 3.1714°W)
Time: 02:54:09
(UTC+01:00)

COSMOS 860 DEB - Visible Passes

Search period start: 01 July 2022 00:00
Search period end: 11 July 2022 00:00
Orbit: 862 x 947 km, 64.7° (Epoch: 30 June)

Date Brightness Start Highest point End Pass type
(mag) Time Alt. Az. Time Alt. Az. Time Alt. Az.
01 Jul ? 00:27:04 10° WNW 00:32:47 36° N 00:38:25 10° ENE visible
01 Jul ? 02:14:23 10° NW 02:20:19 45° NNE 02:26:07 10° E visible
02 Jul ? 00:31:13 10° WNW 00:36:55 36° N 00:42:32 10° ENE visible
02 Jul ? 02:18:21 10° NW 02:24:23 50° NNE 02:30:15 10° E visible
02 Jul ? 22:47:32 10° W 22:53:31 45° NNW 22:59:25 10° NE visible
03 Jul ? 00:35:20 10° WNW 00:41:03 36° N 00:46:39 10° ENE visible
03 Jul ? 02:22:19 10° NW 02:28:24 57° NNE 02:34:20 10° ESE visible
03 Jul ? 22:51:42 10° W 22:57:36 41° NNW 23:03:25 10° NE visible
04 Jul ? 00:39:25 10° WNW 00:45:10 37° N 00:50:48 10° ENE visible
04 Jul ? 02:26:15 10° NW 02:32:24 65° NE 02:38:23 10° ESE visible
04 Jul ? 22:55:53 10° W 23:01:42 39° NNW 23:07:26 10° NE visible
05 Jul ? 00:43:29 10° NW 00:49:17 39° NNE 00:54:58 10° E visible
05 Jul ? 02:30:10 10° NW 02:36:21 76° NE 02:42:22 10° SE visible
05 Jul ? 23:00:04 10° WNW 23:05:49 37° N 23:11:29 10° ENE visible
06 Jul ? 00:47:30 10° NW 00:53:22 42° NNE 00:59:07 10° E visible
06 Jul ? 02:34:05 10° NW 02:40:16 89° NE 02:46:17 10° SE visible
06 Jul ? 23:04:13 10° WNW 23:09:56 36° N 23:15:33 10° ENE visible
07 Jul ? 00:51:30 10° NW 00:57:26 46° NNE 01:03:15 10° E visible
07 Jul ? 02:38:01 10° NW 02:44:09 77° SW 02:50:08 10° SE visible
07 Jul ? 23:08:21 10° WNW 23:14:03 36° N 23:19:40 10° ENE visible
08 Jul ? 00:55:28 10° NW 01:01:29 51° NNE 01:07:22 10° ESE visible
08 Jul ? 02:41:57 10° NW 02:48:00 64° SW 02:53:53 10° SSE visible
08 Jul ? 23:12:28 10° WNW 23:18:11 36° N 23:23:48 10° ENE visible
09 Jul ? 00:59:24 10° NW 01:05:30 58° NNE 01:11:27 10° ESE visible
09 Jul ? 02:45:54 10° NW 02:51:48 52° SW 02:57:33 10° SSE visible
09 Jul ? 23:16:33 10° WNW 23:22:18 38° N 23:27:56 10° ENE visible
10 Jul ? 01:03:20 10° NW 01:09:29 67° NE 01:15:29 10° ESE visible
10 Jul ? 02:49:53 10° NW 02:55:33 41° WSW 03:01:05 10° S visible
10 Jul ? 23:20:36 10° NW 23:26:24 40° NNE 23:32:05 10° E visible
